Weather History for Worthington, MN

Change the Weather History Date:

Wednesday, January 16, 2013

  Actual Average Record
Temperature  
Mean Temperature 30 °F -  
Max Temperature 39 °F 21 °F 54 °F (1990)
Min Temperature 21 °F 6 °F -29 °F (1972)
Degree Days  
Heating Degree Days 35    
Moisture  
Dew Point 21 °F    
Average Humidity 72    
Maximum Humidity 80    
Minimum Humidity 63    
Precipitation  
Precipitation 0.00 in - - ()
Sea Level Pressure  
Sea Level Pressure 29.83 in    
Wind  
Wind Speed 17 mph (West)    
Max Wind Speed 25 mph    
Max Gust Speed 30 mph    
Visibility 10 miles    
Events      
Averages and records for this station are not official NWS values.
T = Trace of Precipitation, MM = Missing Value Source: NWS Daily Summary

Daily Weather History Graph

Daily Weather History Graph

Search for Another Location

Airport:

Trip Planner

Search our weather history database for the weather conditions in past years. The results will help you decide how hot, cold, wet, or windy it might be!

Date:

Astronomy

Jan. 16, 2013 Rise Set
Actual Time 7:52 AM CST 5:12 PM CST
Civil Twilight 7:20 AM CST 5:44 PM CST
Nautical Twilight 6:44 AM CST 6:19 PM CST
Astronomical Twilight 6:10 AM CST 6:54 PM CST
Moon 10:17 AM CST (1/16) 11:18 PM CST (1/16)
Length of Visible Light 10h 24m
Length of Day
9h 20m
Waxing Crescent, 28% of the Moon is Illuminated
Jan 16
Waxing Crescent
Jan 18
First Quarter
Jan 26
Full
Feb 3
Last Quarter
Feb 10
New

Hourly Weather History & Observations

Time (CST) Temp. Windchill Dew Point Humidity Pressure Visibility Wind Dir Wind Speed Gust Speed Precip Events Conditions
12:15 AM 21.2 °F 6.0 °F 10.4 °F 63% 29.81 in 10.0 mi SSW 19.6 mph 26.5 mph N/A   Overcast
12:35 AM 21.2 °F 6.4 °F 12.2 °F 68% 29.80 in 10.0 mi SSW 18.4 mph 24.2 mph N/A   Overcast
12:55 AM 21.2 °F 5.6 °F 12.2 °F 68% 29.79 in 10.0 mi SW 20.7 mph 26.5 mph N/A   Overcast
1:15 AM 21.2 °F 6.4 °F 10.4 °F 63% 29.78 in 10.0 mi SSW 18.4 mph 25.3 mph N/A   Overcast
1:35 AM 23.0 °F 8.7 °F 12.2 °F 63% 29.78 in 10.0 mi SW 18.4 mph 21.9 mph N/A   Overcast
1:55 AM 23.0 °F 9.2 °F 12.2 °F 63% 29.77 in 10.0 mi SSW 17.3 mph 25.3 mph N/A   Overcast
2:15 AM 23.0 °F 8.3 °F 12.2 °F 63% 29.77 in 10.0 mi SW 19.6 mph 25.3 mph N/A   Overcast
2:35 AM 23.0 °F 10.1 °F 12.2 °F 63% 29.77 in 10.0 mi SSW 15.0 mph 23.0 mph N/A   Overcast
2:55 AM 24.8 °F 12.4 °F 14.0 °F 64% 29.76 in 9.0 mi SSW 15.0 mph 20.7 mph N/A   Overcast
3:15 AM 24.8 °F 12.4 °F 15.8 °F 69% 29.77 in 10.0 mi SW 15.0 mph - N/A   Overcast
3:35 AM 24.8 °F 11.1 °F 15.8 °F 69% 29.75 in 10.0 mi SW 18.4 mph - N/A   Overcast
3:55 AM 24.8 °F 11.9 °F 15.8 °F 69% 29.75 in 10.0 mi SW 16.1 mph - N/A   Overcast
4:15 AM 24.8 °F 12.9 °F 15.8 °F 69% 29.75 in 10.0 mi SW 13.8 mph - N/A   Overcast
4:35 AM 24.8 °F 13.4 °F 17.6 °F 74% 29.74 in 10.0 mi WSW 12.7 mph 20.7 mph N/A   Overcast
4:55 AM 24.8 °F 11.9 °F 17.6 °F 74% 29.74 in 10.0 mi WSW 16.1 mph 25.3 mph N/A   Mostly Cloudy
5:15 AM 26.6 °F 13.8 °F 19.4 °F 74% 29.73 in 10.0 mi WSW 17.3 mph - N/A   Overcast
5:35 AM 26.6 °F 14.3 °F 21.2 °F 80% 29.72 in 10.0 mi WSW 16.1 mph - N/A   Overcast
5:55 AM 26.6 °F 14.7 °F 21.2 °F 80% 29.72 in 10.0 mi WSW 15.0 mph - N/A   Scattered Clouds
6:35 AM 28.4 °F 17.5 °F 21.2 °F 74% 29.74 in 10.0 mi WSW 13.8 mph - N/A   Overcast
6:55 AM 28.4 °F 18.0 °F 21.2 °F 74% 29.76 in 10.0 mi WSW 12.7 mph - N/A   Scattered Clouds
7:15 AM 26.6 °F 15.2 °F 19.4 °F 74% 29.76 in 10.0 mi WSW 13.8 mph - N/A   Partly Cloudy
7:35 AM 26.6 °F 16.2 °F 21.2 °F 80% 29.77 in 10.0 mi WSW 11.5 mph - N/A   Mostly Cloudy
7:55 AM 26.6 °F 15.7 °F 21.2 °F 80% 29.77 in 10.0 mi WSW 12.7 mph - N/A   Mostly Cloudy
8:15 AM 26.6 °F 14.7 °F 21.2 °F 80% 29.78 in 10.0 mi WSW 15.0 mph - N/A   Clear
8:35 AM 28.4 °F 18.5 °F 21.2 °F 74% 29.79 in 10.0 mi West 11.5 mph - N/A   Clear
8:55 AM 28.4 °F 17.5 °F 21.2 °F 74% 29.81 in 10.0 mi West 13.8 mph - N/A   Clear
9:15 AM 28.4 °F 17.5 °F 23.0 °F 80% 29.81 in 10.0 mi West 13.8 mph - N/A   Clear
9:35 AM 30.2 °F 20.2 °F 24.8 °F 80% 29.82 in 10.0 mi West 12.7 mph - N/A   Clear
9:55 AM 32.0 °F 23.6 °F 24.8 °F 75% 29.81 in 10.0 mi WSW 10.4 mph - N/A   Mostly Cloudy
10:15 AM 32.0 °F 22.1 °F 24.8 °F 75% 29.82 in 10.0 mi WSW 13.8 mph - N/A   Overcast
10:35 AM 32.0 °F 23.0 °F 24.8 °F 75% 29.83 in 10.0 mi WSW 11.5 mph - N/A   Overcast
10:55 AM 33.8 °F 24.3 °F 26.6 °F 75% 29.83 in 10.0 mi WSW 13.8 mph - N/A   Overcast
11:15 AM 33.8 °F 23.5 °F 26.6 °F 75% 29.83 in 10.0 mi West 16.1 mph - N/A   Overcast
11:35 AM 33.8 °F 24.3 °F 26.6 °F 75% 29.83 in 10.0 mi West 13.8 mph - N/A   Overcast
11:55 AM 35.6 °F 26.6 °F 28.4 °F 75% 29.82 in 10.0 mi West 13.8 mph - N/A   Mostly Cloudy
12:15 PM 37.4 °F 28.9 °F 28.4 °F 70% 29.82 in 10.0 mi West 13.8 mph - N/A   Mostly Cloudy
12:35 PM 37.4 °F 30.3 °F 28.4 °F 70% 29.82 in 10.0 mi West 10.4 mph - N/A   Overcast
12:55 PM 37.4 °F 29.3 °F 28.4 °F 70% 29.82 in 10.0 mi West 12.7 mph - N/A   Overcast
1:15 PM 37.4 °F 29.3 °F 28.4 °F 70% 29.82 in 10.0 mi West 12.7 mph - N/A   Overcast
1:35 PM 39.2 °F 30.5 °F 28.4 °F 65% 29.83 in 10.0 mi West 16.1 mph - N/A   Overcast
1:55 PM 39.2 °F 30.5 °F 28.4 °F 65% 29.83 in 10.0 mi West 16.1 mph - N/A   Scattered Clouds
2:15 PM 39.2 °F 30.5 °F 28.4 °F 65% 29.84 in 10.0 mi West 16.1 mph - N/A   Partly Cloudy
2:35 PM 39.2 °F 29.8 °F 28.4 °F 65% 29.85 in 10.0 mi WNW 18.4 mph - N/A   Scattered Clouds
2:55 PM 39.2 °F 30.2 °F 28.4 °F 65% 29.87 in 10.0 mi NW 17.3 mph 24.2 mph N/A   Mostly Cloudy
3:15 PM 35.6 °F 24.2 °F 26.6 °F 70% 29.90 in 10.0 mi NNW 21.9 mph 28.8 mph N/A   Overcast
3:35 PM 30.2 °F 16.2 °F 24.8 °F 80% 29.93 in 7.0 mi North 25.3 mph - N/A   Overcast
3:55 PM 30.2 °F 17.1 °F 23.0 °F 75% 29.95 in 10.0 mi North 21.9 mph - N/A   Overcast
4:15 PM 28.4 °F 15.1 °F 21.2 °F 74% 29.96 in 10.0 mi NNW 20.7 mph - N/A   Overcast
4:35 PM 28.4 °F 14.4 °F 21.2 °F 74% 30.00 in 10.0 mi North 23.0 mph 29.9 mph N/A   Overcast
4:55 PM 26.6 °F 12.4 °F 17.6 °F 69% 30.01 in 10.0 mi North 21.9 mph 27.6 mph N/A   Overcast
5:15 PM 24.8 °F 11.5 °F 17.6 °F 74% 30.02 in 10.0 mi North 17.3 mph - N/A   Overcast
5:55 PM 23.0 °F 9.6 °F 15.8 °F 74% 30.05 in 10.0 mi North 16.1 mph - N/A   Mostly Cloudy
6:15 PM 21.2 °F 7.3 °F 12.2 °F 68% 30.08 in 10.0 mi NNW 16.1 mph - N/A   Scattered Clouds
6:35 PM 21.2 °F 7.8 °F 12.2 °F 68% 30.09 in 10.0 mi North 15.0 mph - N/A   Clear